EN

Hourly Weather Acatlan de Perez Figueroa

Today, 26 January, Tuesday

Time Temperature Precipitation Wind Pressure Humidity
00:00 +25°C° 0 mm 1 mps 745 mmHg 71%
01:00 +24°C° 0 mm 1 mps 744 mmHg 71%
02:00 +24°C° 0 mm 1 mps 744 mmHg 71%
03:00 +24°C° 0 mm 1 mps 744 mmHg 71%
04:00 +23°C° 0 mm 1 mps 744 mmHg 72%
05:00 +23°C° 0 mm 1 mps 744 mmHg 74%
06:00 +23°C° 0 mm 1 mps 744 mmHg 75%
07:00 +25°C° 0 mm 1 mps 745 mmHg 70%
08:00 +24°C° 0 mm 0 mps 745 mmHg 65%
09:00 +26°C° 0 mm 0 mps 745 mmHg 60%
10:00 +30°C° 0 mm 1 mps 745 mmHg 54%
11:00 +32°C° 0 mm 1 mps 745 mmHg 48%
12:00 +35°C° 0 mm 2 mps 744 mmHg 41%
13:00 +35°C° 0 mm 2 mps 744 mmHg 42%
14:00 +35°C° 0 mm 2 mps 743 mmHg 43%
15:00 +35°C° 0 mm 2 mps 742 mmHg 45%
16:00 +32°C° 0 mm 2 mps 743 mmHg 53%
17:00 +31°C° 0 mm 2 mps 743 mmHg 62%
18:00 +29°C° 0 mm 2 mps 743 mmHg 71%
19:00 +27°C° 0 mm 1 mps 744 mmHg 77%
20:00 +26°C° 0 mm 1 mps 745 mmHg 82%
21:00 +23°C° 0 mm 0 mps 746 mmHg 87%
22:00 +23°C° 0 mm 0 mps 746 mmHg 89%
23:00 +22°C° 0 mm 0 mps 746 mmHg 90%

Tomorrow, 27 January, Wednesday

Time Temperature Precipitation Wind Pressure Humidity
00:00 +22°C° 0 mm 0 mps 746 mmHg 92%
01:00 +22°C° 0 mm 0 mps 746 mmHg 91%
02:00 +22°C° 0 mm 0 mps 746 mmHg 91%
03:00 +21°C° 0 mm 0 mps 746 mmHg 90%
04:00 +21°C° 0 mm 0 mps 746 mmHg 90%
05:00 +21°C° 0 mm 0 mps 746 mmHg 90%
06:00 +21°C° 0 mm 0 mps 747 mmHg 89%
07:00 +23°C° 0 mm 0 mps 747 mmHg 83%
08:00 +24°C° 0 mm 0 mps 748 mmHg 77%
09:00 +25°C° 0 mm 0 mps 749 mmHg 71%
10:00 +28°C° 0 mm 1 mps 749 mmHg 69%
11:00 +29°C° 0 mm 1 mps 748 mmHg 67%
12:00 +29°C° 0 mm 2 mps 748 mmHg 65%
13:00 +29°C° 0.2 mm 2 mps 748 mmHg 67%
14:00 +29°C° 0.2 mm 2 mps 748 mmHg 69%
15:00 +29°C° 0.2 mm 2 mps 748 mmHg 70%
16:00 +28°C° 0.7 mm 2 mps 749 mmHg 75%
17:00 +26°C° 0.7 mm 2 mps 749 mmHg 80%
18:00 +25°C° 0.7 mm 2 mps 750 mmHg 84%
19:00 +25°C° 0.1 mm 1 mps 751 mmHg 85%
20:00 +24°C° 0.1 mm 1 mps 752 mmHg 85%
21:00 +24°C° 0.1 mm 1 mps 753 mmHg 85%
22:00 +23°C° 0.1 mm 1 mps 753 mmHg 87%
23:00 +23°C° 0.1 mm 1 mps 753 mmHg 88%

Day after tomorrow, 28 January, Thursday

Time Temperature Precipitation Wind Pressure Humidity
00:00 +23°C° 0.1 mm 1 mps 754 mmHg 90%
01:00 +23°C° 0.1 mm 1 mps 753 mmHg 90%
02:00 +22°C° 0.1 mm 1 mps 753 mmHg 90%
03:00 +22°C° 0.1 mm 1 mps 753 mmHg 90%
04:00 +20°C° 0.1 mm 0 mps 753 mmHg 90%
05:00 +20°C° 0.1 mm 0 mps 754 mmHg 90%
06:00 +20°C° 0.1 mm 0 mps 754 mmHg 89%
07:00 +20°C° 0.1 mm 0 mps 754 mmHg 89%
08:00 +20°C° 0.1 mm 0 mps 755 mmHg 89%
09:00 +20°C° 0.1 mm 0 mps 755 mmHg 89%
10:00 +20°C° 0.4 mm 0 mps 755 mmHg 90%
11:00 +20°C° 0.4 mm 0 mps 755 mmHg 92%
12:00 +20°C° 0.4 mm 0 mps 754 mmHg 93%
13:00 +20°C° 0.3 mm 0 mps 754 mmHg 93%
14:00 +19°C° 0.3 mm 0 mps 753 mmHg 93%
15:00 +21°C° 0.3 mm 1 mps 753 mmHg 93%
16:00 +21°C° 0.1 mm 1 mps 753 mmHg 93%
17:00 +21°C° 0.1 mm 1 mps 753 mmHg 92%
18:00 +21°C° 0.1 mm 1 mps 753 mmHg 92%
19:00 +21°C° 0.1 mm 1 mps 754 mmHg 92%
20:00 +21°C° 0.1 mm 1 mps 754 mmHg 91%
21:00 +21°C° 0.1 mm 1 mps 755 mmHg 91%
22:00 +21°C° 0 mm 1 mps 755 mmHg 90%
23:00 +19°C° 0 mm 0 mps 755 mmHg 89%

29 January, Friday

Time Temperature Precipitation Wind Pressure Humidity
00:00 +18°C° 0 mm 0 mps 755 mmHg 88%
01:00 +20°C° 0.1 mm 1 mps 754 mmHg 89%
02:00 +20°C° 0.1 mm 1 mps 754 mmHg 89%
03:00 +20°C° 0.1 mm 1 mps 753 mmHg 90%
04:00 +20°C° 0 mm 1 mps 753 mmHg 88%
05:00 +20°C° 0 mm 1 mps 753 mmHg 87%
06:00 +20°C° 0 mm 1 mps 753 mmHg 86%
07:00 +21°C° 0 mm 1 mps 753 mmHg 85%
08:00 +21°C° 0 mm 1 mps 754 mmHg 83%
09:00 +22°C° 0 mm 1 mps 754 mmHg 82%
10:00 +22°C° 0.1 mm 1 mps 753 mmHg 80%
11:00 +20°C° 0.1 mm 0 mps 753 mmHg 79%
12:00 +21°C° 0.1 mm 0 mps 753 mmHg 78%
13:00 +21°C° 0.1 mm 0 mps 752 mmHg 79%
14:00 +21°C° 0.1 mm 0 mps 751 mmHg 80%
15:00 +20°C° 0.1 mm 0 mps 750 mmHg 81%
16:00 +20°C° 0.1 mm 0 mps 750 mmHg 84%
17:00 +20°C° 0.1 mm 0 mps 750 mmHg 86%
18:00 +19°C° 0.1 mm 0 mps 750 mmHg 88%
19:00 +19°C° 0 mm 0 mps 751 mmHg 87%
20:00 +21°C° 0 mm 1 mps 751 mmHg 87%
21:00 +21°C° 0 mm 1 mps 752 mmHg 86%
22:00 +19°C° 0 mm 0 mps 752 mmHg 85%
23:00 +19°C° 0 mm 0 mps 751 mmHg 85%

30 January, Saturday

Time Temperature Precipitation Wind Pressure Humidity
00:00 +19°C° 0 mm 0 mps 751 mmHg 84%
01:00 +19°C° 0 mm 0 mps 751 mmHg 85%
02:00 +19°C° 0 mm 0 mps 750 mmHg 85%
03:00 +19°C° 0 mm 0 mps 750 mmHg 86%
04:00 +19°C° 0 mm 0 mps 750 mmHg 87%
05:00 +18°C° 0 mm 0 mps 750 mmHg 87%
06:00 +18°C° 0 mm 0 mps 749 mmHg 88%
07:00 +20°C° 0 mm 0 mps 750 mmHg 82%
08:00 +21°C° 0 mm 0 mps 750 mmHg 76%
09:00 +23°C° 0 mm 0 mps 750 mmHg 70%
10:00 +26°C° 0 mm 1 mps 750 mmHg 64%
11:00 +28°C° 0 mm 1 mps 749 mmHg 58%
12:00 +30°C° 0 mm 1 mps 748 mmHg 52%
13:00 +30°C° 0 mm 2 mps 747 mmHg 51%
14:00 +31°C° 0 mm 2 mps 746 mmHg 50%
15:00 +31°C° 0 mm 2 mps 746 mmHg 50%
16:00 +29°C° 0 mm 2 mps 746 mmHg 57%
17:00 +28°C° 0 mm 1 mps 746 mmHg 65%
18:00 +26°C° 0 mm 1 mps 746 mmHg 73%
19:00 +25°C° 0 mm 1 mps 746 mmHg 79%
20:00 +24°C° 0 mm 1 mps 747 mmHg 85%
21:00 +21°C° 0 mm 0 mps 747 mmHg 90%
22:00 +20°C° 0 mm 0 mps 748 mmHg 91%
23:00 +20°C° 0 mm 0 mps 748 mmHg 92%

31 January, Sunday

Time Temperature Precipitation Wind Pressure Humidity
00:00 +20°C° 0 mm 0 mps 748 mmHg 93%
01:00 +20°C° 0 mm 0 mps 748 mmHg 93%
02:00 +20°C° 0 mm 0 mps 747 mmHg 92%
03:00 +20°C° 0 mm 0 mps 747 mmHg 92%
04:00 +20°C° 0 mm 0 mps 747 mmHg 90%
05:00 +20°C° 0 mm 0 mps 748 mmHg 89%
06:00 +20°C° 0 mm 0 mps 748 mmHg 87%
07:00 +21°C° 0 mm 0 mps 748 mmHg 83%
08:00 +22°C° 0 mm 0 mps 749 mmHg 79%
09:00 +23°C° 0 mm 0 mps 749 mmHg 74%
10:00 +25°C° 0 mm 0 mps 749 mmHg 68%
11:00 +29°C° 0 mm 1 mps 749 mmHg 61%
12:00 +31°C° 0 mm 1 mps 748 mmHg 54%
13:00 +31°C° 0 mm 1 mps 748 mmHg 53%
14:00 +31°C° 0 mm 2 mps 747 mmHg 52%
15:00 +32°C° 0 mm 2 mps 747 mmHg 51%
16:00 +30°C° 0.1 mm 2 mps 747 mmHg 62%
17:00 +28°C° 0.1 mm 2 mps 748 mmHg 72%
18:00 +26°C° 0.1 mm 2 mps 748 mmHg 82%
19:00 +25°C° 0.4 mm 2 mps 750 mmHg 87%
20:00 +24°C° 0.4 mm 1 mps 751 mmHg 91%
21:00 +23°C° 0.4 mm 1 mps 752 mmHg 95%
22:00 +23°C° 0.4 mm 1 mps 752 mmHg 95%
23:00 +23°C° 0.4 mm 1 mps 752 mmHg 95%
Show more